Location: Aubrey
(33.1990°N, 85.1361°W)
Time: 12:18:02
(UTC+00:00)

Envisat - Pass Details

Date: 21 September 2021
Orbit: 764 x 766 km, 98.2° (Epoch: 23 October)

Event Time Altitude Azimuth Distance (km) Brightness Sun altitude
Rises 09:50:24 0° 29° (NNE) 3,233 6.9 -21.0°
Reaches altitude 10° 09:53:12 10° 44° (NE) 2,303 6.3 -20.5°
Maximum altitude 09:57:08 23° 95° (E) 1,600 5.4 -19.7°
Drops below altitude 10° 10:01:04 10° 146° (SSE) 2,291 5.7 -18.9°
Sets 10:03:49 0° 161° (SSE) 3,213 6.3 -18.3°
